TimeMST,TemperatureF,Dew PointF,Humidity,Sea Level PressureIn,VisibilityMPH,Wind Direction,Wind SpeedMPH,Gust SpeedMPH,PrecipitationIn,Events,Conditions,WindDirDegrees,DateUTC
12:24 AM,12.2,8.6,85,30.10,4.0,WSW,6.9,-,0.00,Snow,Light Snow,250,2013-01-21 07:24:00
12:53 AM,12.9,9.0,84,30.28,2.5,West,9.2,-,0.00,Snow,Light Snow,260,2013-01-21 07:53:00
1:08 AM,12.2,8.6,85,30.09,2.5,West,10.4,-,0.00,Snow,Light Snow,260,2013-01-21 08:08:00
1:25 AM,12.2,8.6,85,30.09,3.0,West,10.4,-,0.00,Snow,Light Snow,260,2013-01-21 08:25:00
1:35 AM,12.2,8.6,85,30.09,2.5,West,12.7,-,0.00,Snow,Light Snow,260,2013-01-21 08:35:00
1:53 AM,12.0,8.1,84,30.28,3.0,WSW,9.2,-,0.00,Snow,Light Snow,250,2013-01-21 08:53:00
2:11 AM,12.2,8.6,85,30.09,4.0,West,12.7,-,0.00,Snow,Light Snow,270,2013-01-21 09:11:00
2:53 AM,12.0,8.1,84,30.26,5.0,West,12.7,-,0.00,Snow,Light Snow,260,2013-01-21 09:53:00
3:29 AM,12.2,8.6,85,30.05,3.0,West,10.4,18.4,0.00,Snow,Light Snow,260,2013-01-21 10:29:00
3:41 AM,12.2,8.6,85,30.05,3.0,West,10.4,-,0.00,Snow,Light Snow,270,2013-01-21 10:41:00
3:53 AM,12.0,8.1,84,30.26,5.0,West,9.2,-,0.00,Snow,Light Snow,260,2013-01-21 10:53:00
4:20 AM,12.2,8.6,85,30.03,10.0,WSW,5.8,-,0.00,,Overcast,250,2013-01-21 11:20:00
4:53 AM,12.9,8.1,81,30.24,10.0,West,3.5,-,0.00,,Overcast,260,2013-01-21 11:53:00
5:53 AM,14.0,8.1,77,30.26,10.0,Calm,Calm,-,N/A,,Overcast,0,2013-01-21 12:53:00
6:53 AM,16.0,8.1,71,30.24,10.0,Variable,6.9,-,N/A,,Scattered Clouds,0,2013-01-21 13:53:00
7:53 AM,14.0,8.1,77,30.23,10.0,WSW,5.8,-,N/A,,Clear,250,2013-01-21 14:53:00
8:49 AM,19.4,10.4,68,30.02,10.0,West,6.9,-,N/A,,Overcast,260,2013-01-21 15:49:00
8:53 AM,19.0,10.9,71,30.23,10.0,West,9.2,-,N/A,,Overcast,260,2013-01-21 15:53:00
9:45 AM,21.2,10.4,63,30.03,10.0,SW,9.2,-,N/A,,Scattered Clouds,230,2013-01-21 16:45:00
9:53 AM,21.0,12.0,68,30.23,10.0,SW,9.2,-,N/A,,Partly Cloudy,220,2013-01-21 16:53:00
10:53 AM,24.1,14.0,65,30.22,10.0,SW,6.9,-,N/A,,Clear,230,2013-01-21 17:53:00
11:53 AM,26.1,16.0,66,30.17,10.0,West,10.4,19.6,N/A,,Mostly Cloudy,270,2013-01-21 18:53:00
12:14 PM,28.4,17.6,64,29.98,10.0,West,17.3,33.4,N/A,,Mostly Cloudy,280,2013-01-21 19:14:00
12:53 PM,27.0,17.1,66,30.14,10.0,West,13.8,29.9,N/A,,Overcast,280,2013-01-21 19:53:00
1:45 PM,28.4,17.6,64,29.96,10.0,WSW,10.4,-,N/A,,Mostly Cloudy,240,2013-01-21 20:45:00
1:53 PM,28.0,16.0,61,30.12,10.0,WSW,8.1,18.4,N/A,,Scattered Clouds,250,2013-01-21 20:53:00
2:53 PM,28.0,16.0,61,30.14,10.0,West,9.2,20.7,N/A,,Scattered Clouds,270,2013-01-21 21:53:00
3:53 PM,28.0,15.1,58,30.13,10.0,West,10.4,16.1,N/A,,Clear,280,2013-01-21 22:53:00
4:53 PM,27.0,14.0,58,30.12,10.0,Variable,3.5,-,N/A,,Overcast,0,2013-01-21 23:53:00
5:53 PM,27.0,12.9,56,30.10,10.0,WNW,4.6,16.1,N/A,,Overcast,290,2013-01-22 00:53:00
6:53 PM,25.0,12.0,58,30.11,10.0,West,4.6,-,N/A,,Clear,260,2013-01-22 01:53:00
7:53 PM,24.1,12.0,60,30.11,10.0,SW,3.5,-,N/A,,Clear,230,2013-01-22 02:53:00
8:53 PM,23.0,12.0,63,30.09,10.0,WSW,5.8,-,N/A,,Clear,240,2013-01-22 03:53:00
9:53 PM,23.0,10.9,60,30.08,10.0,WSW,4.6,-,N/A,,Clear,240,2013-01-22 04:53:00
10:53 PM,19.9,10.9,68,30.08,10.0,WSW,4.6,-,N/A,,Clear,240,2013-01-22 05:53:00
11:53 PM,21.9,10.0,60,30.06,10.0,West,6.9,-,N/A,,Partly Cloudy,270,2013-01-22 06:53:00